Вернуться в каталог

STARLINK-35852

АктивенСвязьVLEO
NORAD 66889·PAYLOAD·🇺🇸 United States

Запущен Dec 4, 2025 с Vandenberg Space Force Base

Loading…

Ближайшие Пролёты (ближайшие 24 часа)

TLE

СвежийSource: CelesTrak SupGP

Эпоха: Sep 14, 2026, 23:13 UTC

1 66889C 25283M   26257.96784722  .00002344  00000+0  69221-4 0  2577
2 66889  53.1587 221.4294 0001420  91.2588 271.7107 15.34400246    17

Отслеживайте STARLINK-35852 в реальном времени с AllMySat

Download on the App Store